User: anonymous   Login
Location: Oshawa
(43.9000°N, 78.8670°W)
Time: 17:58:11
(UTC-04:00)
Language:

Cosmos 1821 Rocket - Orbit

View from above orbital plane
View from above orbital plane
View from above satellite
View from above satellite

Ground track
Ground track

The orbit data is extracted from the following two-line orbital elements,

1 17526U 87017B   17229.88563326 -.00000002 +00000-0 -17674-4 0  9999
2 17526 082.9047 354.1215 0041190 143.3818 217.0167 13.76809653514582
Epoch (UTC): 17 August 2017 21:15:18
Eccentricity: 0.0041190
inclination: 82.9047°
perigee height: 945 km
apogee height: 1005 km
right ascension of ascending node: 354.1215°
argument of perigee: 143.3818°
revolutions per day: 13.76809653
mean anomaly at epoch: 217.0167°
orbit number at epoch: 51458

The dashed part of the orbit path shows where the satellite is in the earth's shadow,  

DLR